Weather History for Billings, MT

Change the Weather History Date:

Sunday, January 27, 2013

  Actual Average Record
Temperature  
Mean Temperature 33 °F 28 °F  
Max Temperature 38 °F 37 °F 60 °F (1986)
Min Temperature 28 °F 19 °F -27 °F (1972)
Degree Days  
Heating Degree Days 32 37  
Month to date heating degree days 961 1027  
Since 1 July heating degree days 3502 3848  
Cooling Degree Days 0 0  
Month to date cooling degree days 0 0  
Year to date cooling degree days 0 0  
Moisture  
Dew Point 29 °F    
Average Humidity 80    
Maximum Humidity 100    
Minimum Humidity 59    
Precipitation  
Precipitation 0.06 in 0.02 in 0.34 in (1949)
Month to date precipitation 0.45 0.42  
Year to date precipitation 0.45 0.42  
Snow  
Snow 0.80 in 0.20 in 4.80 in (1949)
Month to date snowfall 8.2 7.4  
Since 1 July snowfall 24.5 27.3  
Snow Depth 0.00 in    
Sea Level Pressure  
Sea Level Pressure 29.81 in    
Wind  
Wind Speed 7 mph (West)    
Max Wind Speed 16 mph    
Max Gust Speed 19 mph    
Visibility 5 miles    
Events Fog , Snow    
T = Trace of Precipitation, MM = Missing Value Source: NWS Daily Summary

Daily Weather History Graph

Daily Weather History Graph

Search for Another Location

Airport:

Trip Planner

Search our weather history database for the weather conditions in past years. The results will help you decide how hot, cold, wet, or windy it might be!

Date:

Astronomy

Jan. 27, 2013 Rise Set
Actual Time 7:41 AM MST 5:13 PM MST
Civil Twilight 7:09 AM MST 5:45 PM MST
Nautical Twilight 6:33 AM MST 6:21 PM MST
Astronomical Twilight 5:57 AM MST 6:56 PM MST
Moon 6:16 PM MST (1/27) 7:31 AM MST (1/27)
Length of Visible Light 10h 36m
Length of Day
9h 32m
Full, 100% of the Moon is Illuminated
Jan 27
Full
Feb 3
Last Quarter
Feb 10
New
Feb 17
First Quarter
Feb 25
Full

Hourly Weather History & Observations

Time (MST) Temp. Windchill Dew Point Humidity Pressure Visibility Wind Dir Wind Speed Gust Speed Precip Events Conditions
12:53 AM 36.0 °F 27.1 °F 25.0 °F 64% 29.72 in 10.0 mi NW 13.8 mph - N/A   Partly Cloudy
1:53 AM 33.1 °F 23.4 °F 27.0 °F 78% 29.73 in 10.0 mi NW 13.8 mph - N/A   Partly Cloudy
2:53 AM 32.0 °F 27.5 °F 26.1 °F 79% 29.74 in 10.0 mi NNW 4.6 mph - N/A   Partly Cloudy
3:53 AM 30.0 °F 21.7 °F 26.1 °F 85% 29.75 in 10.0 mi NW 9.2 mph - N/A   Partly Cloudy
4:53 AM 30.9 °F 26.2 °F 26.1 °F 82% 29.78 in 10.0 mi West 4.6 mph - N/A   Mostly Cloudy
5:53 AM 30.0 °F 25.2 °F 27.0 °F 88% 29.80 in 10.0 mi SSW 4.6 mph - N/A   Mostly Cloudy
6:53 AM 33.1 °F 27.7 °F 28.0 °F 82% 29.82 in 10.0 mi SSW 5.8 mph - N/A   Mostly Cloudy
7:53 AM 33.1 °F 30.0 °F 28.0 °F 82% 29.83 in 10.0 mi SW 3.5 mph - N/A   Mostly Cloudy
8:53 AM 32.0 °F 26.4 °F 28.0 °F 85% 29.84 in 8.0 mi SSW 5.8 mph - 0.00 in Snow Light Snow
9:53 AM 34.0 °F 28.8 °F 30.0 °F 85% 29.84 in 10.0 mi WSW 5.8 mph - 0.00 in   Overcast
10:53 AM 33.1 °F - 30.0 °F 89% 29.85 in 10.0 mi Calm Calm - N/A   Overcast
11:53 AM 33.1 °F 27.7 °F 30.0 °F 89% 29.84 in 9.0 mi SSW 5.8 mph - 0.00 in Snow Light Snow
12:53 PM 34.0 °F 29.8 °F 30.9 °F 89% 29.83 in 3.0 mi SW 4.6 mph - 0.00 in Snow Light Snow
1:53 PM 34.0 °F 24.2 °F 28.9 °F 82% 29.84 in 3.0 mi NW 15.0 mph - 0.01 in Snow Light Snow
2:00 PM 33.1 °F 23.0 °F 28.9 °F 85% 29.77 in 2.5 mi NW 15.0 mph - 0.00 in Snow Light Snow
2:08 PM 33.1 °F 23.4 °F 30.0 °F 89% 29.76 in 1.5 mi NW 13.8 mph - 0.00 in Snow Light Snow
2:24 PM 33.1 °F 23.0 °F 30.0 °F 89% 29.76 in 2.5 mi NNW 15.0 mph - 0.00 in Snow Light Snow
2:38 PM 33.1 °F 23.9 °F 30.0 °F 89% 29.75 in 3.0 mi NNW 12.7 mph - 0.00 in Snow Light Snow
2:53 PM 33.1 °F 23.4 °F 30.0 °F 89% 29.83 in 3.0 mi NW 13.8 mph - 0.00 in Snow Light Snow
3:30 PM 32.0 °F 24.8 °F 30.0 °F 92% 29.77 in 2.5 mi NW 8.1 mph - 0.00 in Snow Light Snow
3:38 PM 32.0 °F 26.4 °F 30.0 °F 92% 29.76 in 2.5 mi NW 5.8 mph - 0.00 in Snow Light Snow
3:53 PM 32.0 °F 24.2 °F 28.9 °F 88% 29.86 in 1.8 mi NNW 9.2 mph - 0.00 in Snow Light Snow
4:01 PM 32.0 °F 24.8 °F 30.0 °F 92% 29.77 in 1.2 mi NNW 8.1 mph - 0.00 in Snow Light Snow
4:31 PM 30.9 °F 27.5 °F 30.0 °F 96% 29.78 in 1.0 mi North 3.5 mph - 0.01 in Snow Light Snow
4:53 PM 30.9 °F 26.2 °F 30.0 °F 96% 29.86 in 0.8 mi NE 4.6 mph - 0.02 in Snow Light Snow
5:06 PM 30.9 °F 27.5 °F 30.0 °F 96% 29.77 in 1.0 mi NE 3.5 mph - 0.01 in Snow Light Snow
5:13 PM 30.9 °F 24.3 °F 30.0 °F 96% 29.77 in 1.0 mi NE 6.9 mph - 0.01 in Snow Light Snow
5:44 PM 30.0 °F 26.5 °F 28.9 °F 96% 29.79 in 3.0 mi NNE 3.5 mph - 0.01 in Snow Light Snow
5:53 PM 30.0 °F - 28.9 °F 96% 29.88 in 2.5 mi Calm Calm - 0.02 in Snow Light Snow
6:10 PM 30.9 °F - 28.9 °F 92% 29.80 in 2.0 mi Calm Calm - 0.00 in Snow Light Snow
6:16 PM 30.0 °F - 28.9 °F 96% 29.80 in 1.8 mi Calm Calm - 0.00 in Snow Light Snow
6:30 PM 30.0 °F - 28.9 °F 96% 29.80 in 2.0 mi Calm Calm - 0.01 in Snow Light Snow
6:53 PM 30.0 °F 26.5 °F 28.9 °F 96% 29.87 in 1.8 mi North 3.5 mph - 0.01 in Snow Light Snow
6:59 PM 30.0 °F - 28.9 °F 96% 29.79 in 2.0 mi Calm Calm - 0.00 in Snow Light Snow
7:07 PM 30.0 °F - 28.9 °F 96% 29.79 in 3.0 mi Calm Calm - 0.00 in Snow Light Snow
7:19 PM 30.0 °F - 28.9 °F 96% 29.79 in 5.0 mi Calm Calm - 0.00 in Snow Light Snow
7:43 PM 30.0 °F 24.1 °F 28.9 °F 96% 29.79 in 1.0 mi SW 5.8 mph - 0.00 in Snow Light Snow
7:53 PM 30.0 °F 23.2 °F 28.9 °F 96% 29.86 in 1.8 mi SSW 6.9 mph - 0.00 in Snow Light Snow
8:08 PM 30.0 °F 24.1 °F 28.9 °F 96% 29.78 in 0.8 mi SSW 5.8 mph - 0.00 in Snow Light Snow
8:13 PM 30.0 °F 24.1 °F 28.9 °F 96% 29.78 in 0.5 mi SW 5.8 mph - 0.00 in Fog , Snow Light Snow
8:20 PM 30.0 °F 23.2 °F 28.9 °F 96% 29.79 in 1.0 mi SW 6.9 mph - 0.00 in Snow Light Snow
8:33 PM 30.0 °F 22.4 °F 28.9 °F 96% 29.79 in 1.0 mi SSW 8.1 mph - 0.00 in Snow Light Snow
8:36 PM 30.0 °F 23.2 °F 28.9 °F 96% 29.79 in 1.5 mi South 6.9 mph - 0.00 in Snow Light Snow
8:41 PM 30.0 °F 22.4 °F 28.9 °F 96% 29.79 in 3.0 mi SSW 8.1 mph - 0.00 in Snow Light Snow
8:53 PM 30.0 °F 22.4 °F 28.9 °F 96% 29.88 in 6.0 mi SW 8.1 mph - 0.00 in Snow Light Snow
9:03 PM 30.0 °F 22.4 °F 28.0 °F 92% 29.79 in 3.0 mi SW 8.1 mph - 0.00 in Snow Light Snow
9:53 PM 30.0 °F 24.1 °F 28.0 °F 92% 29.88 in 9.0 mi SSW 5.8 mph - 0.00 in Snow Light Snow
10:53 PM 28.9 °F 22.8 °F 28.0 °F 96% 29.89 in 9.0 mi South 5.8 mph - 0.00 in Snow Light Snow
11:53 PM 28.9 °F 23.9 °F 26.1 °F 89% 29.89 in 10.0 mi SSW 4.6 mph - 0.00 in   Overcast